TAP88BW LPPT-LPFR

Flight info

Callsign TAP88BW
Flight time 0h 31m
Altitude 23000
Route DUZOP DCT ODEMI
Aircraft E195/M-SDE3GILORVW/S

Departure

Time 2026-05-07 22:34
Airport Lisbon Humberto Delgado Airport (LPPT)

Arrival

Time 2026-05-07 23:05
Airport Faro - Gago Coutinho International Airport (LPFR)
Time Latitude Longitude Altitude Speed Heading
2026-05-07 21:56 38.77028 -9.13092 336 ft 0 kts 78°
2026-05-07 21:56 38.76982 -9.13080 332 ft 0 kts 79°
2026-05-07 22:18 38.76978 -9.13105 333 ft 4 kts 79°
2026-05-07 22:18 38.76974 -9.13132 336 ft 4 kts 85°
2026-05-07 22:19 38.76977 -9.13161 336 ft 4 kts 145°
2026-05-07 22:19 38.77000 -9.13171 337 ft 4 kts 168°
2026-05-07 22:19 38.77005 -9.13172 337 ft 1 kts 168°
2026-05-07 22:26 38.77003 -9.13172 333 ft 2 kts 168°
2026-05-07 22:26 38.76985 -9.13167 335 ft 5 kts 168°
2026-05-07 22:26 38.76944 -9.13156 333 ft 7 kts 168°
2026-05-07 22:26 38.76901 -9.13144 334 ft 2 kts 169°
2026-05-07 22:27 38.76881 -9.13139 336 ft 4 kts 168°
2026-05-07 22:27 38.76839 -9.13128 333 ft 9 kts 168°
2026-05-07 22:27 38.76790 -9.13136 334 ft 5 kts 224°
2026-05-07 22:27 38.76777 -9.13190 335 ft 8 kts 259°
2026-05-07 22:28 38.76763 -9.13272 337 ft 10 kts 258°
2026-05-07 22:28 38.76750 -9.13351 341 ft 9 kts 257°
2026-05-07 22:28 38.76716 -9.13409 347 ft 9 kts 217°
2026-05-07 22:28 38.76667 -9.13458 344 ft 9 kts 231°
2026-05-07 22:29 38.76645 -9.13541 352 ft 11 kts 258°
2026-05-07 22:29 38.76628 -9.13646 348 ft 13 kts 258°
2026-05-07 22:29 38.76608 -9.13763 351 ft 14 kts 258°
2026-05-07 22:29 38.76587 -9.13896 344 ft 16 kts 258°
2026-05-07 22:30 38.76569 -9.14007 344 ft 12 kts 258°
2026-05-07 22:30 38.76559 -9.14126 348 ft 15 kts 280°
2026-05-07 22:30 38.76582 -9.14202 339 ft 0 kts 293°
2026-05-07 22:30 38.76583 -9.14205 339 ft 1 kts 293°
2026-05-07 22:31 38.76594 -9.14237 334 ft 7 kts 292°
2026-05-07 22:31 38.76603 -9.14264 335 ft 0 kts 292°
2026-05-07 22:32 38.76603 -9.14267 337 ft 2 kts 292°
2026-05-07 22:32 38.76620 -9.14319 333 ft 10 kts 293°
2026-05-07 22:32 38.76670 -9.14374 332 ft 10 kts 14°
2026-05-07 22:32 38.76696 -9.14361 336 ft 0 kts 22°
2026-05-07 22:33 38.76701 -9.14358 336 ft 4 kts 22°
2026-05-07 22:33 38.76942 -9.14229 345 ft 75 kts 22°
2026-05-07 22:33 38.77650 -9.13853 370 ft 143 kts 23°
2026-05-07 22:34 38.78701 -9.13277 723 ft 179 kts 21°
2026-05-07 22:34 38.79880 -9.12548 1531 ft 194 kts 27°
2026-05-07 22:34 38.81084 -9.11642 2252 ft 204 kts 30°
2026-05-07 22:34 38.82301 -9.10669 3023 ft 213 kts 30°
2026-05-07 22:35 38.83620 -9.09686 3655 ft 232 kts 26°
2026-05-07 22:35 38.85143 -9.08640 4210 ft 258 kts 27°
2026-05-07 22:35 38.86759 -9.07476 5006 ft 273 kts 32°
2026-05-07 22:35 38.88048 -9.05680 5945 ft 280 kts 64°
2026-05-07 22:36 38.88389 -9.03252 6953 ft 279 kts 97°
2026-05-07 22:36 38.87819 -9.00886 7952 ft 278 kts 122°
2026-05-07 22:36 38.86658 -8.98924 8966 ft 277 kts 131°
2026-05-07 22:36 38.85601 -8.96844 9954 ft 279 kts 122°
2026-05-07 22:37 38.84482 -8.94746 10645 ft 291 kts 136°
2026-05-07 22:37 38.82828 -8.93303 11359 ft 296 kts 161°
2026-05-07 22:37 38.80796 -8.92826 12237 ft 300 kts 180°
2026-05-07 22:37 38.78741 -8.93294 13173 ft 304 kts 199°
2026-05-07 22:38 38.76805 -8.94450 14128 ft 309 kts 205°
2026-05-07 22:38 38.74906 -8.95683 15147 ft 311 kts 205°
2026-05-07 22:38 38.72930 -8.96937 16115 ft 314 kts 205°
2026-05-07 22:38 38.70998 -8.98181 17043 ft 316 kts 205°
2026-05-07 22:39 38.69024 -8.99454 17910 ft 319 kts 206°
2026-05-07 22:39 38.67038 -9.00758 18763 ft 323 kts 206°
2026-05-07 22:39 38.65036 -9.02095 19613 ft 327 kts 207°
2026-05-07 22:39 38.63009 -9.03477 20401 ft 332 kts 208°
2026-05-07 22:40 38.60931 -9.04796 21154 ft 336 kts 199°
2026-05-07 22:40 38.58601 -9.05196 21868 ft 345 kts 179°
2026-05-07 22:40 38.56244 -9.04468 22521 ft 357 kts 160°
2026-05-07 22:40 38.54101 -9.02764 23128 ft 368 kts 149°
2026-05-07 22:41 38.52004 -9.00733 23158 ft 387 kts 147°
2026-05-07 22:41 38.49854 -8.98576 23185 ft 397 kts 147°
2026-05-07 22:41 38.47643 -8.96416 23212 ft 404 kts 147°
2026-05-07 22:41 38.45406 -8.94208 23213 ft 408 kts 147°
2026-05-07 22:42 38.43159 -8.91974 23110 ft 411 kts 146°
2026-05-07 22:42 38.40915 -8.89716 22980 ft 410 kts 146°
2026-05-07 22:42 38.38678 -8.87468 22930 ft 408 kts 146°
2026-05-07 22:42 38.36423 -8.85243 22936 ft 410 kts 147°
2026-05-07 22:43 38.34198 -8.83041 22933 ft 411 kts 147°
2026-05-07 22:43 38.31940 -8.80804 22935 ft 412 kts 147°
2026-05-07 22:43 38.29676 -8.78566 22934 ft 412 kts 147°
2026-05-07 22:43 38.27413 -8.76327 22935 ft 412 kts 147°
2026-05-07 22:44 38.25144 -8.74086 22932 ft 413 kts 147°
2026-05-07 22:44 38.22878 -8.71846 22933 ft 413 kts 147°
2026-05-07 22:44 38.20608 -8.69606 22934 ft 413 kts 147°
2026-05-07 22:44 38.18333 -8.67363 22936 ft 413 kts 147°
2026-05-07 22:45 38.16061 -8.65126 22933 ft 414 kts 147°
2026-05-07 22:45 38.13785 -8.62888 22929 ft 414 kts 147°
2026-05-07 22:45 38.11509 -8.60648 22937 ft 414 kts 147°
2026-05-07 22:45 38.09229 -8.58409 22929 ft 414 kts 147°
2026-05-07 22:46 38.06950 -8.56171 22928 ft 414 kts 147°
2026-05-07 22:46 38.04668 -8.53933 22934 ft 415 kts 147°
2026-05-07 22:46 38.02384 -8.51693 22936 ft 415 kts 147°
2026-05-07 22:46 38.00103 -8.49457 22935 ft 414 kts 147°
2026-05-07 22:47 37.97823 -8.47225 22934 ft 415 kts 147°
2026-05-07 22:47 37.95534 -8.44984 22931 ft 415 kts 147°
2026-05-07 22:47 37.93276 -8.42775 22939 ft 416 kts 147°
2026-05-07 22:47 37.90991 -8.40542 22940 ft 416 kts 147°
2026-05-07 22:48 37.88698 -8.38303 22934 ft 415 kts 147°
2026-05-07 22:48 37.86407 -8.36070 22934 ft 415 kts 147°
2026-05-07 22:48 37.84115 -8.33838 22936 ft 415 kts 147°
2026-05-07 22:48 37.81822 -8.31605 22936 ft 415 kts 147°
2026-05-07 22:49 37.79530 -8.29376 22936 ft 415 kts 147°
2026-05-07 22:49 37.77245 -8.27141 22941 ft 414 kts 147°
2026-05-07 22:49 37.74973 -8.24959 22923 ft 404 kts 147°
2026-05-07 22:49 37.72786 -8.22825 22918 ft 391 kts 147°
2026-05-07 22:50 37.70637 -8.20740 22603 ft 395 kts 147°
2026-05-07 22:50 37.68465 -8.18568 21609 ft 400 kts 146°
2026-05-07 22:50 37.66290 -8.16380 20864 ft 395 kts 146°
2026-05-07 22:50 37.64158 -8.14284 20334 ft 383 kts 147°
2026-05-07 22:51 37.62075 -8.12239 19822 ft 373 kts 147°
2026-05-07 22:51 37.60076 -8.10290 19332 ft 363 kts 147°
2026-05-07 22:51 37.58100 -8.08364 18862 ft 354 kts 147°
2026-05-07 22:51 37.56174 -8.06494 18406 ft 345 kts 148°
2026-05-07 22:52 37.54285 -8.04663 17953 ft 339 kts 148°
2026-05-07 22:52 37.52424 -8.02867 17496 ft 335 kts 148°
2026-05-07 22:52 37.50574 -8.01085 17069 ft 334 kts 147°
2026-05-07 22:52 37.48728 -7.99308 16631 ft 334 kts 147°
2026-05-07 22:53 37.46878 -7.97533 16182 ft 335 kts 147°
2026-05-07 22:53 37.45024 -7.95750 15747 ft 334 kts 147°
2026-05-07 22:53 37.43179 -7.93983 15326 ft 333 kts 147°
2026-05-07 22:53 37.41340 -7.92228 14859 ft 331 kts 147°
2026-05-07 22:54 37.39523 -7.90494 14409 ft 325 kts 146°
2026-05-07 22:54 37.37739 -7.88802 14004 ft 317 kts 146°
2026-05-07 22:54 37.36000 -7.87147 13575 ft 311 kts 146°
2026-05-07 22:54 37.34292 -7.85525 13164 ft 305 kts 146°
2026-05-07 22:55 37.32611 -7.83932 12737 ft 300 kts 146°
2026-05-07 22:55 37.30961 -7.82374 12360 ft 294 kts 146°
2026-05-07 22:55 37.29334 -7.80841 11960 ft 290 kts 146°
2026-05-07 22:55 37.27750 -7.79354 11594 ft 285 kts 146°
2026-05-07 22:56 37.26171 -7.77866 11198 ft 283 kts 146°
2026-05-07 22:56 37.24598 -7.76389 10831 ft 282 kts 145°
2026-05-07 22:56 37.23026 -7.74915 10456 ft 282 kts 145°
2026-05-07 22:56 37.21456 -7.73445 10083 ft 282 kts 145°
2026-05-07 22:57 37.19885 -7.71975 9706 ft 282 kts 144°
2026-05-07 22:57 37.18289 -7.70484 9335 ft 289 kts 144°
2026-05-07 22:57 37.16676 -7.68979 8924 ft 288 kts 144°
2026-05-07 22:57 37.15072 -7.67486 8531 ft 286 kts 144°
2026-05-07 22:58 37.13482 -7.66005 8148 ft 283 kts 144°
2026-05-07 22:58 37.11905 -7.64542 7761 ft 281 kts 144°
2026-05-07 22:58 37.10357 -7.63110 7399 ft 278 kts 144°
2026-05-07 22:58 37.08678 -7.61970 7024 ft 274 kts 166°
2026-05-07 22:59 37.06811 -7.61965 6685 ft 270 kts 196°
2026-05-07 22:59 37.05092 -7.62878 6363 ft 270 kts 206°
2026-05-07 22:59 37.03402 -7.63907 5977 ft 270 kts 206°
2026-05-07 22:59 37.01702 -7.64907 5602 ft 269 kts 206°
2026-05-07 23:00 37.00014 -7.65906 5240 ft 267 kts 206°
2026-05-07 23:00 36.98340 -7.66899 4882 ft 265 kts 208°
2026-05-07 23:00 36.97036 -7.68459 4469 ft 263 kts 244°
2026-05-07 23:00 36.96828 -7.70674 4090 ft 260 kts 284°
2026-05-07 23:01 36.97659 -7.72652 3780 ft 256 kts 302°
2026-05-07 23:01 36.98363 -7.74594 3476 ft 235 kts 282°
2026-05-07 23:01 36.98549 -7.76523 3216 ft 213 kts 276°
2026-05-07 23:01 36.98799 -7.78280 2938 ft 198 kts 283°
2026-05-07 23:02 36.99080 -7.79867 2927 ft 181 kts 280°
2026-05-07 23:02 36.99288 -7.81395 2880 ft 180 kts 279°
2026-05-07 23:02 36.99499 -7.82957 2575 ft 178 kts 279°
2026-05-07 23:02 36.99695 -7.84427 2261 ft 168 kts 279°
2026-05-07 23:03 36.99864 -7.85802 2011 ft 153 kts 279°
2026-05-07 23:03 37.00063 -7.87049 1808 ft 144 kts 282°
2026-05-07 23:03 37.00274 -7.88306 1490 ft 151 kts 281°
2026-05-07 23:03 37.00444 -7.89625 1258 ft 154 kts 279°
2026-05-07 23:04 37.00627 -7.90955 1016 ft 157 kts 281°
2026-05-07 23:04 37.00824 -7.92304 746 ft 157 kts 281°
2026-05-07 23:04 37.01018 -7.93638 463 ft 155 kts 280°
2026-05-07 23:04 37.01208 -7.94941 215 ft 147 kts 281°
2026-05-07 23:05 37.01380 -7.96134 27 ft 130 kts 280°
2026-05-07 23:05 37.01514 -7.97090 21 ft 88 kts 281°
2026-05-07 23:05 37.01601 -7.97705 20 ft 62 kts 281°
2026-05-07 23:05 37.01700 -7.97900 19 ft 8 kts 49°
2026-05-07 23:06 37.01724 -7.97807 20 ft 14 kts 66°
2026-05-07 23:06 37.01764 -7.97688 19 ft 16 kts 76°
2026-05-07 23:06 37.01764 -7.97546 19 ft 18 kts 102°
2026-05-07 23:06 37.01739 -7.97386 21 ft 19 kts 109°
2026-05-07 23:07 37.01715 -7.97219 18 ft 20 kts 97°
2026-05-07 23:07 37.01692 -7.97041 19 ft 20 kts 99°
2026-05-07 23:07 37.01698 -7.96921 19 ft 13 kts 47°
2026-05-07 23:07 37.01768 -7.96894 19 ft 7 kts 10°
2026-05-07 23:08 37.01785 -7.96890 19 ft 0 kts 10°
2026-05-07 23:08 37.01798 -7.96887 19 ft 5 kts 13°
2026-05-07 23:08 37.01826 -7.96839 19 ft 10 kts 79°
2026-05-07 23:08 37.01793 -7.96771 19 ft 11 kts 172°
2026-05-07 23:09 37.01746 -7.96779 19 ft 4 kts 190°
2026-05-07 23:09 37.01742 -7.96780 19 ft 0 kts 190°